DECAYED

STARLINK-33851, 63683 (Decayed)

Orbit data source: Space-Track

STARLINK-33851, 63683 was a payload satellite owned by SpaceX/Seattle (US) in LEO that was launched on Mon, 28 Apr 2025 UTC via an FALCON 9 launch vehicle from the Air Force Eastern Test Range (AFETR). Payload-class satellites include a variety of spacecraft equipped with specific instruments for various scientific and technological missions. These include communications satellites like Starlink; space stations such as the ISS; scientific satellites like the Hubble; Earth observation satellites from companies like Planet Labs, Umbra, and HawkEye 360; GPS; miniature CubeSats for education and research; and military/defense satellites.

Not visible in the next 10 days
Identifier
63683, 2025-085V
Orbit
Decayed
Country
Flag of USUS
Related business
Manufacturer
SpaceX/Seattle
Mission
Decayed Commercial Communications
Bus & Motor
STARLINK V2MO, Unknown motor
Mass
575 kg wet, ~530 kg dry
Launch date (UTC)
2025-04-28 (1 year ago)
Launch vehicle
FALCON 9
Launch site
Air Force Eastern Test Range (AFETR)
Object type
Payload
Rocket body
Debris
Shape & HBR
Box + 2 Pan, 17.7 m
Radar Cross Section
36.964 m², Large (>1 m²)

Expand to show TLE details & history
Last TLE update: 2 months ago

TLE from 2 months ago
0 STARLINK-33851
1 63683U 25085V   26120.27563351  .14593743  90075-5  30206-2 0  9994
2 63683  42.9930  89.4991 0006839 193.3251 166.7459 16.30020710 56879
Epoch: 2026-04-30T06:36Z
TLE epoch observation values (Epoch: 2026-04-30T06:36:54.735Z)
Latitude
0.00003°
Longitude
132.04649°
Altitude
196.622 km
Speed
7.788 km/s
True Right ascension
05h 57m 59s
True Declination
0° 00' 00"
Sunlit
Object was in daylight at epoch
Visualization orbit readout
Latitude
Unknown
Longitude
Unknown
Altitude
Unknown
Speed
Unknown
Apparent Right ascension
Unknown
Apparent Declination
Unknown
Sunlit
N/A
Visualization observer readout
Local Sidereal Time
07:16:53
Azimuth
Unknown
Elevation
Unknown
Doppler factor
Unknown
Orbital elements
Apogee altitude
199.011 km
Perigee altitude
190.021 km
Semi-major axis
6,572.653 km
Eccentricity
0.00068
Inclination
42.993°
RAAN
89.4991°
Arg. of periapsis
193.3251°
True anomaly
166.76385°
Mean anomaly
166.7459°
Eccentric anomaly
166.75488°
Mean motion
4.07317 °/min
Orbital period
88.38 mins
BSTAR
0.0030206
Loading maneuver chart data...
Computing Atmospheric mass density...
Loading historical data...
Loading historical data...
Loading historical data...
Loading historical data...
Loading historical data...
Loading historical data...
Loading historical data...

Documentation

Showing up to 5 results
|